Time,TemperatureF,DewpointF,PressureIn,WindDirection,WindDirectionDegrees,WindSpeedMPH,WindSpeedGustMPH,Humidity,HourlyPrecipIn,Conditions,Clouds,dailyrainin,SolarRadiationWatts/m^2,SoftwareType,DateUTC
2013-09-17 00:02:00,71.0,49.0,-100.00,WSW,241,7.0,16.0,45,0.00,,,0.00,413.000000,,2013-09-17 00:02:00,
2013-09-17 00:11:00,71.0,49.0,-100.00,WSW,241,7.0,16.0,45,0.00,,,0.00,413.000000,,2013-09-17 00:11:00,
2013-09-17 00:22:00,71.0,49.0,-100.00,WSW,241,7.0,16.0,45,0.00,,,0.00,413.000000,,2013-09-17 00:22:00,
2013-09-17 00:32:00,71.0,49.0,-100.00,WSW,241,7.0,16.0,45,0.00,,,0.00,413.000000,,2013-09-17 00:32:00,
2013-09-17 00:52:00,66.0,50.0,-100.00,West,273,5.0,14.0,57,0.00,,,0.00,76.000000,,2013-09-17 00:52:00,
2013-09-17 01:02:00,66.0,50.0,-100.00,West,273,5.0,14.0,57,0.00,,,0.00,76.000000,,2013-09-17 01:02:00,
2013-09-17 01:11:00,66.0,50.0,-100.00,West,273,5.0,14.0,57,0.00,,,0.00,76.000000,,2013-09-17 01:11:00,
2013-09-17 01:21:00,66.0,50.0,-100.00,West,273,5.0,14.0,57,0.00,,,0.00,76.000000,,2013-09-17 01:21:00,
2013-09-17 01:32:00,66.0,50.0,-100.00,West,273,5.0,14.0,57,0.00,,,0.00,76.000000,,2013-09-17 01:32:00,
2013-09-17 01:52:00,59.0,51.0,-100.00,ESE,108,5.0,7.0,75,0.00,,,0.00,6.000000,,2013-09-17 01:52:00,
2013-09-17 02:03:00,59.0,51.0,-100.00,ESE,108,5.0,7.0,75,0.00,,,0.00,6.000000,,2013-09-17 02:03:00,
2013-09-17 02:12:00,59.0,51.0,-100.00,ESE,108,5.0,7.0,75,0.00,,,0.00,6.000000,,2013-09-17 02:12:00,
2013-09-17 02:22:00,59.0,51.0,-100.00,ESE,108,5.0,7.0,75,0.00,,,0.00,6.000000,,2013-09-17 02:22:00,
2013-09-17 02:32:00,59.0,51.0,-100.00,ESE,108,5.0,7.0,75,0.00,,,0.00,6.000000,,2013-09-17 02:32:00,
2013-09-17 02:34:00,57.0,52.0,-100.00,ENE,66,5.0,7.0,83,0.00,,,0.00,0.000000,,2013-09-17 02:34:00,
2013-09-17 02:52:00,57.0,52.0,-100.00,ENE,66,5.0,7.0,83,0.00,,,0.00,0.000000,,2013-09-17 02:52:00,
2013-09-17 03:02:00,57.0,52.0,-100.00,ENE,66,5.0,7.0,83,0.00,,,0.00,0.000000,,2013-09-17 03:02:00,
2013-09-17 03:12:00,57.0,52.0,-100.00,ENE,66,5.0,7.0,83,0.00,,,0.00,0.000000,,2013-09-17 03:12:00,
2013-09-17 03:23:00,57.0,52.0,-100.00,ENE,66,5.0,7.0,83,0.00,,,0.00,0.000000,,2013-09-17 03:23:00,
2013-09-17 03:34:00,56.0,52.0,-100.00,ENE,62,2.0,6.0,86,0.00,,,0.00,0.000000,,2013-09-17 03:34:00,
2013-09-17 03:54:00,56.0,52.0,-100.00,ENE,62,2.0,6.0,86,0.00,,,0.00,0.000000,,2013-09-17 03:54:00,
2013-09-17 04:05:00,56.0,52.0,-100.00,ENE,62,2.0,6.0,86,0.00,,,0.00,0.000000,,2013-09-17 04:05:00,
2013-09-17 04:14:00,56.0,52.0,-100.00,ENE,62,2.0,6.0,86,0.00,,,0.00,0.000000,,2013-09-17 04:14:00,
2013-09-17 04:24:00,56.0,52.0,-100.00,ENE,62,2.0,6.0,86,0.00,,,0.00,0.000000,,2013-09-17 04:24:00,
2013-09-17 04:34:00,54.0,51.0,-100.00,SSW,212,2.0,5.0,90,0.00,,,0.00,0.000000,,2013-09-17 04:34:00,
2013-09-17 04:54:00,54.0,51.0,-100.00,SSW,212,2.0,5.0,90,0.00,,,0.00,0.000000,,2013-09-17 04:54:00,
2013-09-17 05:04:00,54.0,51.0,-100.00,SSW,212,2.0,5.0,90,0.00,,,0.00,0.000000,,2013-09-17 05:04:00,
2013-09-17 05:12:00,54.0,51.0,-100.00,SSW,212,2.0,5.0,90,0.00,,,0.00,0.000000,,2013-09-17 05:12:00,
2013-09-17 05:23:00,54.0,51.0,-100.00,SSW,212,2.0,5.0,90,0.00,,,0.00,0.000000,,2013-09-17 05:23:00,
2013-09-17 05:52:00,52.0,50.0,-100.00,East,97,3.0,5.0,93,0.00,,,0.00,0.000000,,2013-09-17 05:52:00,
2013-09-17 06:02:00,52.0,50.0,-100.00,East,97,3.0,5.0,93,0.00,,,0.00,0.000000,,2013-09-17 06:02:00,
2013-09-17 06:12:00,52.0,50.0,-100.00,East,97,3.0,5.0,93,0.00,,,0.00,0.000000,,2013-09-17 06:12:00,
2013-09-17 06:22:00,52.0,50.0,-100.00,East,97,3.0,5.0,93,0.00,,,0.00,0.000000,,2013-09-17 06:22:00,
2013-09-17 06:32:00,52.0,50.0,-100.00,East,97,3.0,5.0,93,0.00,,,0.00,0.000000,,2013-09-17 06:32:00,
2013-09-17 06:52:00,51.0,49.0,-100.00,SE,125,2.0,6.0,93,0.00,,,0.00,0.000000,,2013-09-17 06:52:00,
2013-09-17 07:02:00,51.0,49.0,-100.00,SE,125,2.0,6.0,93,0.00,,,0.00,0.000000,,2013-09-17 07:02:00,
2013-09-17 07:11:00,51.0,49.0,-100.00,SE,125,2.0,6.0,93,0.00,,,0.00,0.000000,,2013-09-17 07:11:00,
2013-09-17 07:23:00,51.0,49.0,-100.00,SE,125,2.0,6.0,93,0.00,,,0.00,0.000000,,2013-09-17 07:23:00,
2013-09-17 07:32:00,51.0,49.0,-100.00,SE,125,2.0,6.0,93,0.00,,,0.00,0.000000,,2013-09-17 07:32:00,
2013-09-17 07:52:00,50.0,48.0,-100.00,South,191,3.0,5.0,94,0.00,,,0.00,0.000000,,2013-09-17 07:52:00,
2013-09-17 08:02:00,50.0,48.0,-100.00,South,191,3.0,5.0,94,0.00,,,0.00,0.000000,,2013-09-17 08:02:00,
2013-09-17 08:12:00,50.0,48.0,-100.00,South,191,3.0,5.0,94,0.00,,,0.00,0.000000,,2013-09-17 08:12:00,
2013-09-17 08:22:00,50.0,48.0,-100.00,South,191,3.0,5.0,94,0.00,,,0.00,0.000000,,2013-09-17 08:22:00,
2013-09-17 08:32:00,50.0,48.0,-100.00,South,191,3.0,5.0,94,0.00,,,0.00,0.000000,,2013-09-17 08:32:00,
2013-09-17 08:52:00,49.0,48.0,-100.00,ENE,62,4.0,5.0,95,0.00,,,0.00,0.000000,,2013-09-17 08:52:00,
2013-09-17 09:02:00,49.0,48.0,-100.00,ENE,62,4.0,5.0,95,0.00,,,0.00,0.000000,,2013-09-17 09:02:00,
2013-09-17 09:12:00,49.0,48.0,-100.00,ENE,62,4.0,5.0,95,0.00,,,0.00,0.000000,,2013-09-17 09:12:00,
2013-09-17 09:22:00,49.0,48.0,-100.00,ENE,62,4.0,5.0,95,0.00,,,0.00,0.000000,,2013-09-17 09:22:00,
2013-09-17 09:33:00,49.0,48.0,-100.00,ENE,62,4.0,5.0,95,0.00,,,0.00,0.000000,,2013-09-17 09:33:00,
2013-09-17 09:53:00,51.0,50.0,-100.00,SSE,165,3.0,7.0,95,0.00,,,0.00,0.000000,,2013-09-17 09:53:00,
2013-09-17 10:03:00,51.0,50.0,-100.00,SSE,165,3.0,7.0,95,0.00,,,0.00,0.000000,,2013-09-17 10:03:00,
2013-09-17 10:12:00,51.0,50.0,-100.00,SSE,165,3.0,7.0,95,0.00,,,0.00,0.000000,,2013-09-17 10:12:00,
2013-09-17 10:23:00,51.0,50.0,-100.00,SSE,165,3.0,7.0,95,0.00,,,0.00,0.000000,,2013-09-17 10:23:00,
2013-09-17 10:33:00,51.0,50.0,-100.00,SSE,165,3.0,7.0,95,0.00,,,0.00,0.000000,,2013-09-17 10:33:00,
2013-09-17 10:53:00,51.0,50.0,-100.00,East,79,3.0,7.0,95,0.00,,,0.00,0.000000,,2013-09-17 10:53:00,
2013-09-17 11:03:00,51.0,50.0,-100.00,East,79,3.0,7.0,95,0.00,,,0.00,0.000000,,2013-09-17 11:03:00,
2013-09-17 11:11:00,51.0,50.0,-100.00,East,79,3.0,7.0,95,0.00,,,0.00,0.000000,,2013-09-17 11:11:00,
2013-09-17 11:22:00,51.0,50.0,-100.00,East,79,3.0,7.0,95,0.00,,,0.00,0.000000,,2013-09-17 11:22:00,
2013-09-17 11:33:00,51.0,50.0,-100.00,East,79,3.0,7.0,95,0.00,,,0.00,0.000000,,2013-09-17 11:33:00,
2013-09-17 11:52:00,51.0,50.0,-100.00,NE,40,2.0,6.0,95,0.00,,,0.00,0.000000,,2013-09-17 11:52:00,
2013-09-17 12:02:00,51.0,50.0,-100.00,NE,40,2.0,6.0,95,0.00,,,0.00,0.000000,,2013-09-17 12:02:00,
2013-09-17 12:12:00,51.0,50.0,-100.00,NE,40,2.0,6.0,95,0.00,,,0.00,0.000000,,2013-09-17 12:12:00,
2013-09-17 12:22:00,51.0,50.0,-100.00,NE,40,2.0,6.0,95,0.00,,,0.00,0.000000,,2013-09-17 12:22:00,
2013-09-17 12:32:00,51.0,50.0,-100.00,NE,40,2.0,6.0,95,0.00,,,0.00,0.000000,,2013-09-17 12:32:00,
2013-09-17 12:52:00,51.0,50.0,-100.00,SSE,161,3.0,5.0,95,0.00,,,0.00,0.000000,,2013-09-17 12:52:00,
2013-09-17 13:02:00,51.0,50.0,-100.00,SSE,161,3.0,5.0,95,0.00,,,0.00,0.000000,,2013-09-17 13:02:00,
2013-09-17 13:11:00,51.0,50.0,-100.00,SSE,161,3.0,5.0,95,0.00,,,0.00,0.000000,,2013-09-17 13:11:00,
2013-09-17 13:22:00,51.0,50.0,-100.00,SSE,161,3.0,5.0,95,0.00,,,0.00,0.000000,,2013-09-17 13:22:00,
2013-09-17 13:32:00,51.0,50.0,-100.00,SSE,161,3.0,5.0,95,0.00,,,0.00,0.000000,,2013-09-17 13:32:00,
2013-09-17 13:52:00,53.0,52.0,-100.00,NE,45,4.0,5.0,95,0.00,,,0.00,11.000000,,2013-09-17 13:52:00,
2013-09-17 14:02:00,53.0,52.0,-100.00,NE,45,4.0,5.0,95,0.00,,,0.00,11.000000,,2013-09-17 14:02:00,
2013-09-17 14:11:00,53.0,52.0,-100.00,NE,45,4.0,5.0,95,0.00,,,0.00,11.000000,,2013-09-17 14:11:00,
2013-09-17 14:22:00,53.0,52.0,-100.00,NE,45,4.0,5.0,95,0.00,,,0.00,11.000000,,2013-09-17 14:22:00,
2013-09-17 14:32:00,53.0,52.0,-100.00,NE,45,4.0,5.0,95,0.00,,,0.00,11.000000,,2013-09-17 14:32:00,
2013-09-17 14:34:00,60.0,52.0,-100.00,NW,320,2.0,4.0,76,0.00,,,0.00,213.000000,,2013-09-17 14:34:00,
2013-09-17 14:52:00,60.0,52.0,-100.00,NW,320,2.0,4.0,76,0.00,,,0.00,213.000000,,2013-09-17 14:52:00,
2013-09-17 15:02:00,60.0,52.0,-100.00,NW,320,2.0,4.0,76,0.00,,,0.00,213.000000,,2013-09-17 15:02:00,
2013-09-17 15:11:00,60.0,52.0,-100.00,NW,320,2.0,4.0,76,0.00,,,0.00,213.000000,,2013-09-17 15:11:00,
2013-09-17 15:22:00,60.0,52.0,-100.00,NW,320,2.0,4.0,76,0.00,,,0.00,213.000000,,2013-09-17 15:22:00,
2013-09-17 15:53:00,66.0,56.0,-100.00,NW,309,3.0,5.0,69,0.00,,,0.00,355.000000,,2013-09-17 15:53:00,
2013-09-17 16:03:00,66.0,56.0,-100.00,NW,309,3.0,5.0,69,0.00,,,0.00,355.000000,,2013-09-17 16:03:00,
2013-09-17 16:13:00,66.0,56.0,-100.00,NW,309,3.0,5.0,69,0.00,,,0.00,355.000000,,2013-09-17 16:13:00,
2013-09-17 16:23:00,66.0,56.0,-100.00,NW,309,3.0,5.0,69,0.00,,,0.00,355.000000,,2013-09-17 16:23:00,
2013-09-17 16:32:00,66.0,56.0,-100.00,NW,309,3.0,5.0,69,0.00,,,0.00,355.000000,,2013-09-17 16:32:00,
2013-09-17 16:34:00,68.0,54.0,-100.00,WSW,247,5.0,10.0,60,0.00,,,0.00,562.000000,,2013-09-17 16:34:00,
2013-09-17 16:54:00,68.0,54.0,-100.00,WSW,247,5.0,10.0,60,0.00,,,0.00,562.000000,,2013-09-17 16:54:00,
2013-09-17 17:03:00,68.0,54.0,-100.00,WSW,247,5.0,10.0,60,0.00,,,0.00,562.000000,,2013-09-17 17:03:00,
2013-09-17 17:12:00,68.0,54.0,-100.00,WSW,247,5.0,10.0,60,0.00,,,0.00,562.000000,,2013-09-17 17:12:00,
2013-09-17 17:23:00,68.0,54.0,-100.00,WSW,247,5.0,10.0,60,0.00,,,0.00,562.000000,,2013-09-17 17:23:00,
2013-09-17 17:53:00,69.0,52.0,-100.00,West,277,5.0,12.0,55,0.00,,,0.00,713.000000,,2013-09-17 17:53:00,
2013-09-17 18:02:00,69.0,52.0,-100.00,West,277,5.0,12.0,55,0.00,,,0.00,713.000000,,2013-09-17 18:02:00,
2013-09-17 18:12:00,69.0,52.0,-100.00,West,277,5.0,12.0,55,0.00,,,0.00,713.000000,,2013-09-17 18:12:00,
2013-09-17 18:22:00,69.0,52.0,-100.00,West,277,5.0,12.0,55,0.00,,,0.00,713.000000,,2013-09-17 18:22:00,
2013-09-17 18:32:00,69.0,52.0,-100.00,West,277,5.0,12.0,55,0.00,,,0.00,713.000000,,2013-09-17 18:32:00,
2013-09-17 18:52:00,73.0,50.0,-100.00,WSW,253,5.0,12.0,45,0.00,,,0.00,809.000000,,2013-09-17 18:52:00,
2013-09-17 19:02:00,73.0,50.0,-100.00,WSW,253,5.0,12.0,45,0.00,,,0.00,809.000000,,2013-09-17 19:02:00,
2013-09-17 19:12:00,73.0,50.0,-100.00,WSW,253,5.0,12.0,45,0.00,,,0.00,809.000000,,2013-09-17 19:12:00,
2013-09-17 19:22:00,73.0,50.0,-100.00,WSW,253,5.0,12.0,45,0.00,,,0.00,809.000000,,2013-09-17 19:22:00,
2013-09-17 19:32:00,73.0,50.0,-100.00,WSW,253,5.0,12.0,45,0.00,,,0.00,809.000000,,2013-09-17 19:32:00,
2013-09-17 19:52:00,75.0,50.0,-100.00,WNW,287,5.0,11.0,41,0.00,,,0.00,840.000000,,2013-09-17 19:52:00,
2013-09-17 20:02:00,75.0,50.0,-100.00,WNW,287,5.0,11.0,41,0.00,,,0.00,840.000000,,2013-09-17 20:02:00,
2013-09-17 20:11:00,75.0,50.0,-100.00,WNW,287,5.0,11.0,41,0.00,,,0.00,840.000000,,2013-09-17 20:11:00,
2013-09-17 20:22:00,75.0,50.0,-100.00,WNW,287,5.0,11.0,41,0.00,,,0.00,840.000000,,2013-09-17 20:22:00,
2013-09-17 20:32:00,75.0,50.0,-100.00,WNW,287,5.0,11.0,41,0.00,,,0.00,840.000000,,2013-09-17 20:32:00,
2013-09-17 20:34:00,76.0,49.0,-100.00,WSW,253,5.0,11.0,39,0.00,,,0.00,800.000000,,2013-09-17 20:34:00,
2013-09-17 20:52:00,76.0,49.0,-100.00,WSW,253,5.0,11.0,39,0.00,,,0.00,800.000000,,2013-09-17 20:52:00,
2013-09-17 21:02:00,76.0,49.0,-100.00,WSW,253,5.0,11.0,39,0.00,,,0.00,800.000000,,2013-09-17 21:02:00,
2013-09-17 21:12:00,76.0,49.0,-100.00,WSW,253,5.0,11.0,39,0.00,,,0.00,800.000000,,2013-09-17 21:12:00,
2013-09-17 21:22:00,76.0,49.0,-100.00,WSW,253,5.0,11.0,39,0.00,,,0.00,800.000000,,2013-09-17 21:22:00,
2013-09-17 21:54:00,76.0,47.0,-100.00,West,262,7.0,15.0,36,0.00,,,0.00,707.000000,,2013-09-17 21:54:00,
2013-09-17 22:04:00,76.0,47.0,-100.00,West,262,7.0,15.0,36,0.00,,,0.00,707.000000,,2013-09-17 22:04:00,
2013-09-17 22:13:00,76.0,47.0,-100.00,West,262,7.0,15.0,36,0.00,,,0.00,707.000000,,2013-09-17 22:13:00,
2013-09-17 22:24:00,76.0,47.0,-100.00,West,262,7.0,15.0,36,0.00,,,0.00,707.000000,,2013-09-17 22:24:00,
2013-09-17 22:33:00,76.0,47.0,-100.00,West,262,7.0,15.0,36,0.00,,,0.00,707.000000,,2013-09-17 22:33:00,
2013-09-17 22:34:00,76.0,49.0,-100.00,West,262,8.0,17.0,39,0.00,,,0.00,565.000000,,2013-09-17 22:34:00,
2013-09-17 22:53:00,76.0,49.0,-100.00,West,262,8.0,17.0,39,0.00,,,0.00,565.000000,,2013-09-17 22:53:00,
2013-09-17 23:03:00,76.0,49.0,-100.00,West,262,8.0,17.0,39,0.00,,,0.00,565.000000,,2013-09-17 23:03:00,
2013-09-17 23:12:00,76.0,49.0,-100.00,West,262,8.0,17.0,39,0.00,,,0.00,565.000000,,2013-09-17 23:12:00,
2013-09-17 23:22:00,76.0,49.0,-100.00,West,262,8.0,17.0,39,0.00,,,0.00,565.000000,,2013-09-17 23:22:00,
2013-09-17 23:52:00,73.0,46.0,-100.00,WSW,243,6.0,14.0,38,0.00,,,0.00,356.000000,,2013-09-17 23:52:00,